Header for Extended Forecast Station List Page

Search by: ID | Name | Date | Parm | Value | Avg | % Avg
Sort by: ID | Name | Date | Parm | Value | Avg | % Avg

Enter search or view all records.

Click on id for station plot
#IDNameDateParmValueAvg% Avg
0ABOM8CLARK FORK-ABOVE MISSOULA10-09-2018DISCHARGE (KAF)381347110
1AFRI1SNAKE-AMERICAN FALLS RESERVOIR10-09-2018INFLOW (KAF)1436145299
2ALFW1PEND OREILLE-ALBENI FALLS DAM10-09-2018INFLOW (KAF)2899416970
3ALPW4SNAKE-NEAR ALPINE10-09-2018DISCHARGE (KAF)413400103
4ANAW1SNAKE-NEAR ANATONE10-09-2018DISCHARGE (KAF)3823552369
5ANTI1HENRYS FORK-AT ST. ANTHONY10-09-2018DISCHARGE (KAF)349338103
6ARAI1SF BOISE-ANDERSON RANCH DAM10-09-2018INFLOW (KAF)687393
7ARDW1ENTIAT-NEAR ARDENVOIR10-09-2018DISCHARGE (KAF)192287
8BELM8CLARK FORK-BELOW MISSOULA10-09-2018DISCHARGE (KAF)55058195
9BERO3MALHEUR-AGENCY VALLEY DAM10-09-2018INFLOW (KAF)101567
10BFEI1KOOTENAI-AT BONNERS FERRY10-09-2018STAGE (FT)MMM
11BFTI1SNAKE-NEAR BLACKFOOT10-09-2018DISCHARGE (KAF)777771101
12BIGI1BOISE-AT GLENWOOD BRIDGE10-09-2018DISCHARGE (KAF)5137135
13BITM8BITTERROOT-NEAR MISSOULA10-09-2018DISCHARGE (KAF)16623072
14BONM8BLACKFOOT-NEAR BONNER10-09-2018DISCHARGE (KAF)139137101
15BONO3COLUMBIA-BONNEVILLE DAM10-09-2018INFLOW (KAF)285163486382
16BRNI1SNAKE-BROWNLEE DAM10-09-2018INFLOW (KAF)2909366079
17BUDW1BUMPING-BUMPING LAKE DAM10-09-2018INFLOW (KAF)203459
18BULO3BULLY CREEK-BULLY CREEK DAM10-09-2018INFLOW (KAF)22128
19CABI1CLARK FORK-CABINET GORGE DAM10-09-2018INFLOW (KAF)2766358777
20CFMM8FLATHEAD-AT COLUMBIA FALLS10-09-2018DISCHARGE (KAF)902119276
21CHDW1CHELAN-LAKE CHELAN DAM10-09-2018INFLOW (KAF)13815688
22CHEI1FALL RIVER-NEAR CHESTER10-09-2018DISCHARGE (KAF)117111105
23CHJW1COLUMBIA-CHIEF JOSEPH DAM10-09-2018INFLOW (KAF)197902081395
24CIBW1COLUMBIA-AT INTL BOUNDARY10-09-2018DISCHARGE (KAF)19033MM
25CLFW1NACHES-NEAR CLIFFDEL10-09-2018DISCHARGE (KAF)669867
26CLUW1CLE ELUM-CLE ELUM LAKE10-09-2018INFLOW (KAF)5510055
27COEI1COEUR D ALENE-COEUR D ALENE LAKE10-09-2018INFLOW (KAF)23459539
28CSDI1NF PAYETTE-CASCADE DAM10-09-2018INFLOW (KAF)829289
29DEDI1DEADWOOD-NEAR LOWMAN10-09-2018INFLOW (KAF)171989
30DLGM8CLARK FORK-AT DEER LODGE10-09-2018DISCHARGE (KAF)6963109
31DRMM8CLARK FORK-NR DRUMMOND10-09-2018DISCHARGE (KAF)167MM
32DWRI1NF CLEARWATER-DWORSHAK DAM10-09-2018INFLOW (KAF)26747656
33EASW1YAKIMA-AT EASTON10-09-2018DISCHARGE (KAF)456470
34EMMI1PAYETTE-NEAR EMMETT10-09-2018DISCHARGE (KAF)28034481
35FCFM8NF FLATHEAD-NEAR COLUMBIA FALLS10-09-2018DISCHARGE (KAF)11219657
36GCDW1COLUMBIA-GRAND COULEE DAM10-09-2018INFLOW (KAF)1971017222114
37GIBO3UMATILLA-NEAR GIBBON10-09-2018DISCHARGE (KAF)3329111
38HALI1BIG WOOD-AT HAILEY10-09-2018DISCHARGE (KAF)374192
39HEII1SNAKE-NEAR HEISE10-09-2018DISCHARGE (KAF)631620102
40HHWM8SF FLATHEAD-HUNGRY HORSE DAM10-09-2018INFLOW (KAF)13724456
41HODO3HOOD-NEAR TUCKER BRIDGE10-09-2018DISCHARGE (KAF)224209108
42HOPI1PEND OREILLE-PEND OREILLE LAKE NR HOPE10-09-2018LAKE ELEVATION (FT)MMM
43HOTI1BRUNEAU-NEAR HOT SPRINGS10-09-2018DISCHARGE (KAF)172666
44HWRI1BIG LOST-AT HOWELL RANCH NEAR CHILLY10-09-2018DISCHARGE (KAF)2422112
45IHDW1SNAKE-ICE HARBOR DAM10-09-2018INFLOW (KAF)4675725764
46IPDI1HENRYS FORK-ISLAND PARK DAM10-09-2018INFLOW (KAF)8411871
47JDAO3COLUMBIA-JOHN DAY DAM10-09-2018INFLOW (KAF)271862966692
48JKSW4SNAKE-NEAR JACKSON10-09-2018DISCHARGE (KAF)325315103
49JLKW4SNAKE-JACKSON LAKE AT DAM10-09-2018INFLOW (KAF)10611295
50KADW1KACHESS-KACHESS DAM10-09-2018INFLOW (KAF)344379
51KEDW1YAKIMA-KEECHELUS LAKE10-09-2018INFLOW (KAF)375074
52KERM8FLATHEAD-KERR DAM10-09-2018INFLOW (KAF)1012149468
53KIOW1YAKIMA-AT KIONA10-09-2018DISCHARGE (KAF)54165982
54LAUW1KETTLE-AT LAURIER10-09-2018DISCHARGE (KAF)9012771
55LEOI1KOOTENAI-AT LEONIA10-09-2018DISCHARGE (KAF)24801614154
56LGDW1SNAKE-LOWER GRANITE DAM10-09-2018INFLOW (KAF)4643722764
57LGSW1SNAKE-LITTLE GOOSE DAM10-09-2018INFLOW (KAF)4643727764
58LLKW1SPOKANE-AT LONGLAKE10-09-2018INFLOW (KAF)525104450
59LMNW1SNAKE-LOWER MONUMENTAL DAM10-09-2018INFLOW (KAF)4675733464
60LUCI1BOISE-LUCKY PEAK DAM10-09-2018INFLOW (KAF)28MM
61LWRI1LITTLE WOOD-LITTLE WOOD DAM10-09-2018INFLOW (KAF)131585
62LYDM8KOOTENAI-LIBBY DAM10-09-2018INFLOW (KAF)77493783
63MACI1BIG LOST-MACKAY RESERVOIR NEAR MACKAY10-09-2018INFLOW (KAF)436677
64MAGI1BIG WOOD-MAGIC DAM10-09-2018INFLOW (KAF)222782
65MCDW1COLUMBIA-MCNARY DAM10-09-2018INFLOW (KAF)261302883291
66MILI1SNAKE-AT MILNER10-09-2018DISCHARGE (KAF)13251426
67MODO3DESCHUTES-AT MOODY NR BIGGS10-09-2018DISCHARGE (KAF)1288134296
68MONO3NF JOHN DAY-AT MONUMENT10-09-2018DISCHARGE (KAF)548862
69MYKO3MCKAY CREEK-NEAR PILOT ROCK10-09-2018DISCHARGE (KAF)131492
70NACW1NACHES-NEAR NACHES10-09-2018DISCHARGE (KAF)547076
71NOXM8CLARK FORK-NOXON RAPIDS DAM10-09-2018INFLOW (KAF)2524344273
72ORFI1CLEARWATER-AT OROFINO10-09-2018DISCHARGE (KAF)38262761
73OWYO3OWYHEE-OWYHEE DAM10-09-2018INFLOW (KAF)7874107
74PARI1BOISE-NEAR PARMA10-09-2018DISCHARGE (KAF)18420988
75PARW1YAKIMA-NEAR PARKER10-09-2018DISCHARGE (KAF)31542374
76PATW1METHOW-NEAR PATEROS10-09-2018DISCHARGE (KAF)101100102
77PDTO3UMATILLA-AT PENDLETON10-09-2018DISCHARGE (KAF)7366112
78PESW1WENATCHEE-AT PESHASTIN10-09-2018DISCHARGE (KAF)18429063
79PIHI1PORTNEUF-AT POCATELLO10-09-2018DISCHARGE (KAF)535989
80PITW1KLICKITAT-NEAR PITT10-09-2018DISCHARGE (KAF)21125782
81PLDI1SF SNAKE-PALISADES DAM10-09-2018INFLOW (KAF)648646100
82PRTI1PRIEST-NEAR PRIEST RIVER10-09-2018DISCHARGE (KAF)13823459
83PRWW1COLUMBIA-PRIEST RAPIDS DAM10-09-2018INFLOW (KAF)2087919702106
84RCCM8ROCK CREEK-NEAR CLINTON10-09-2018DISCHARGE (KAF)6050121
85REXI1HENRYS FORK-AT REXBURG10-09-2018DISCHARGE (KAF)433428101
86RIDI1WILLOW CREEK-RIRIE DAM10-09-2018INFLOW (KAF)88101
87RILW1TIETON-RIMROCK LAKE NEAR RIMROCK10-09-2018INFLOW (KAF)376458
88RRHW1COLUMBIA-ROCKY REACH DAM10-09-2018INFLOW (KAF)206812167095
89SATI1ST MARIES-NEAR SANTA10-09-2018DISCHARGE (KAF)152952
90SERO3JOHN DAY-AT SERVICE CK10-09-2018DISCHARGE (KAF)12116772
91SHYI1SNAKE-NEAR SHELLEY10-09-2018DISCHARGE (KAF)863797108
92SIFI1SNAKE-AB EAGLE ROCK NR IDAHO FALLS10-09-2018DISCHARGE (KAF)868817106
93SJMI1ST JOE-AT ST MARIES10-09-2018STAGE (FT)MMM
94SNAI1SNAKE-AT BLACKFOOT10-09-2018DISCHARGE (KAF)758714106
95SPDI1CLEARWATER-AT SPALDING10-09-2018DISCHARGE (KAF)819149855
96SPOW1SPOKANE-AT SPOKANE10-09-2018DISCHARGE (KAF)339MM
97SRGM8CLARK FORK-AT ST REGIS10-09-2018DISCHARGE (KAF)68575790
98STRM8ST. REGIS-NEAR ST. REGIS10-09-2018DISCHARGE (KAF)183651
99SWAI1SNAKE-BELOW SWAN FALLS10-09-2018DISCHARGE (KAF)1927251777
100TCHW1WALLA WALLA-NEAR TOUCHET10-09-2018DISCHARGE (KAF)869789
101TDAO3COLUMBIA-THE DALLES DAM10-09-2018INFLOW (KAF)278713291485
102TEAI1TETON-NEAR ST. ANTHONY10-09-2018DISCHARGE (KAF)9910792
103TNAW1TEANAWAY-BELOW FORKS10-09-2018DISCHARGE (KAF)113533
104TONW1OKANOGAN-NEAR TONASKET10-09-2018DISCHARGE (KAF)23628084
105TRYO3GRANDE RONDE-TROY10-09-2018DISCHARGE (KAF)18527268
106UMAO3UMATILLA-NEAR UMATILLA10-09-2018DISCHARGE (KAF)10869157
107UMTW1YAKIMA-AT UMTANUM10-09-2018DISCHARGE (KAF)19724182
108UNDW1WHITE SALMON-NEAR UNDERWOOD10-09-2018DISCHARGE (KAF)221221100
109VALO3MALHEUR-NEAR VALE10-09-2018DISCHARGE (KAF)162470
110WANW1COLUMBIA-WANAPUM DAM10-09-2018INFLOW (KAF)2088019365108
111WEII1SNAKE-AT WEISER10-09-2018DISCHARGE (KAF)2734355977
112WELW1COLUMBIA-WELLS DAM10-09-2018INFLOW (KAF)201222116895
113WGCM8MF FLATHEAD-NEAR WEST GLACIER10-09-2018DISCHARGE (KAF)15117288
114WHBI1SALMON-AT WHITEBIRD10-09-2018DISCHARGE (KAF)1008108493
115WRMO3MALHEUR-WARM SPRINGS DAM10-09-2018INFLOW (KAF)111862
116WSRI1WEISER-NEAR WEISER10-09-2018DISCHARGE (KAF)376656